Location: Barra Bali
(23.0090°S, 43.4362°W)
Time: 20:30:40
(UTC+00:00)

Daily predictions for brighter satellites

Satellite Brightness Start Highest point End
(mag) Time Altitude Azimuth Time Altitude Azimuth Time Altitude Azimuth
Cosmos 1805 3.3 20:40:50 10° N 20:44:43 90° WNW 20:48:40 10° S
GPS 2-04 Rocket1 3.6 20:44:54 10° SW 20:47:58 25° SSE 20:50:56 10° E
USA 215 3.4 20:41:57 10° ENE 20:48:17 55° SE 20:54:39 10° SSW
Cosmos 841 Rocket 4.1 20:43:10 10° SSW 20:48:23 64° WNW 20:53:32 10° N
Cosmos 968 Rocket 4.3 20:43:42 10° NNW 20:48:44 53° WSW 20:53:53 10° S
H-2A R/B 3.4 20:49:00 10° S 20:52:47 58° WSW 20:56:29 10° NNW
SMAP 3.1 20:48:09 10° SSE 20:52:47 60° E 20:57:23 10° N
CREW DRAGON DEMO-1 DEB 3.1 20:52:54 10° SW 20:56:01 74° NW 20:59:05 10° NE
CZ-2C R/B 4.3 20:56:31 10° E 20:57:29 10° ESE 20:58:26 10° ESE
Cosmos 1455 Rocket 3.6 20:53:48 10° NNE 20:57:58 40° E 21:02:11 10° SSE
Okean O Rocket 1.9 20:54:00 10° S 20:58:29 75° WSW 21:02:52 10° NNW
Cosmos 1766 3.6 20:55:15 10° NNW 20:59:05 67° W 21:02:59 10° S
ASTRO E2 2.9 20:55:55 10° WSW 20:59:52 54° SSE 21:03:48 10° E
GEOS 3 Rocket 4.2 20:58:12 10° ENE 21:02:53 34° SE 21:07:31 10° S
Lacrosse 4 Rocket 3.0 21:03:27 10° NE 21:05:57 16° ENE 21:07:19 14° E
AQUARIUS 4.1 21:01:48 10° SSE 21:06:22 79° ENE 21:10:50 10° N
Cosmos 2322 Rocket 2.1 21:01:17 10° SSW 21:06:58 81° ESE 21:12:35 10° NNE
Meteor 1-22 Rocket 4.2 21:03:17 10° N 21:08:43 88° W 21:14:27 10° S
Meteor 2-19 Rocket 4.4 21:03:54 10° S 21:10:04 72° E 21:16:07 10° NNE
Cosmos 2237 4.5 21:07:03 10° S 21:12:33 46° ESE 21:17:59 10° NE
Cosmos 1726 4.3 21:11:21 10° ENE 21:11:35 11° ENE 21:11:35 11° ENE
Cosmos 1777 Rocket 4.4 21:08:10 10° N 21:13:08 42° E 21:18:07 10° SSE
SL-14 R/B 4.2 21:09:57 10° SSE 21:13:11 25° E 21:16:23 10° NE
SL-24 R/B - RUBIN 2 3.7 21:10:33 10° SSW 21:15:00 61° ESE 21:19:58 10° NE
Cosmos 2292 Rocket 2.8 21:12:15 10° S 21:15:16 48° E 21:18:08 10° NNE
NOSS 3-3 (A) 4.1 21:09:40 10° S 21:15:19 41° ESE 21:20:33 10° NE
NOSS 3-3 (C) 4.1 21:09:47 10° S 21:15:24 40° ESE 21:20:38 10° NE
Cosmos 1953 4.0 21:13:16 10° NE 21:15:17 15° E 21:15:17 15° E
Okean-O 3.7 21:14:25 16° SE 21:16:53 25° E 21:20:31 10° NNE
NOAA 12 4.1 21:12:55 10° SSE 21:18:15 86° ENE 21:23:32 10° NNW
CZ-3C R/B 4.2 21:15:21 10° NW 21:19:14 23° N 21:31:30 10° NE
Timation 2 Rocket 4.1 21:15:43 10° N 21:21:36 54° ENE 21:27:30 11° SSE
Envisat 3.6 21:17:05 10° S 21:22:07 59° WSW 21:27:06 10° NNW
CZ-4 R/B 2.7 21:22:31 20° E 21:22:52 20° E 21:25:57 10° NE
ARGOS Delta rocket 3.5 21:18:56 10° SSE 21:23:23 77° E 21:27:48 10° N
Cosmos 2297 Rocket 3.4 21:20:02 10° NNE 21:24:15 22° E 21:25:31 20° E
Cosmos 1655 Rocket 4.3 21:18:02 10° S 21:24:18 74° W 21:30:35 10° N
Cosmos 489 Rocket 4.4 21:18:25 10° SSW 21:24:41 88° ESE 21:30:56 10° NNE
Meteor 2-5 Rocket 3.7 21:19:56 10° S 21:25:36 81° E 21:31:19 10° N
Cosmos 1470 2.7 21:22:46 10° N 21:26:43 65° E 21:30:43 10° SSE
SL-24 R/B 3.9 21:23:10 10° NNE 21:27:23 60° ESE 21:31:13 10° S
GPS 2-14 Rocket1 3.2 21:26:56 10° W 21:30:36 50° N 21:32:48 22° ENE
Sakura Rocket 3.5 21:28:04 10° WSW 21:31:38 33° S 21:32:45 27° SE
Fermi 3.7 21:28:06 10° WNW 21:32:10 77° NNE 21:33:57 32° E
Cosmos 1626 2.2 21:28:35 10° S 21:32:15 51° E 21:35:52 10° NNE
Cosmos 2322 4.4 21:27:24 10° S 21:32:25 31° ESE 21:37:24 10° NE
NOAA 11 4.3 21:28:37 10° SSE 21:34:00 53° E 21:39:17 10° N
Cosmos 1674 4.3 21:30:57 10° SSW 21:34:32 37° W 21:38:05 10° NNW
CZ-2D R/B 4.3 21:35:22 27° ENE 21:35:22 27° ENE 21:38:25 10° NNE
Aureole 3 Rocket 4.3 21:28:05 10° NNE 21:35:24 47° E 21:39:41 17° SSE
TELKOM 3 3.8 21:33:07 10° SSW 21:36:04 53° SE 21:37:00 39° E
Cosmos 1939 Rocket 3.4 21:35:34 31° ESE 21:36:49 39° E 21:40:41 10° NNE
Cosmos 1544 Rocket 3.6 21:35:24 10° N 21:39:51 84° W 21:44:21 10° S
Helios 1A Rocket 3.2 21:36:22 10° S 21:40:33 70° WSW 21:44:41 10° NNW
Cosmos 2219 Rocket 3.9 21:36:55 10° SSE 21:38:06 15° SSE 21:38:06 15° SSE
Longmarch 3A Rocket 2.2 21:34:41 10° WSW 21:43:34 69° NNW 21:44:47 34° NE
Cosmos 2360 Rocket 2.1 21:38:26 10° SSW 21:44:06 87° ESE 21:49:43 10° NNE
Exosat Rocket 4.4 21:41:08 10° NNE 21:46:09 39° E 21:48:18 31° ESE
ATLAS 3B R/B 4.0 21:39:27 10° NW 21:46:15 41° WSW 21:53:13 10° S
Meteor 1-24 Rocket 3.7 21:41:03 10° S 21:46:33 87° W 21:52:12 10° N
Cosmos 2084 Rocket 3.5 21:44:27 10° NNW 21:48:55 64° ENE 21:50:02 46° ESE
Cosmos 1340 Rocket 2.6 21:49:34 10° N 21:53:29 71° E 21:53:59 62° SE
Cosmos 2333 Rocket 3.4 21:50:20 10° S 21:53:03 25° SSE 21:53:03 25° SSE
Palapa 6 Rocket 4.4 21:54:06 10° NW 21:59:04 31° NNE 22:00:11 28° NE
Cosmos 1758 4.3 21:57:14 10° NNW 22:01:06 47° W 22:04:09 15° SSW
Cosmos 2227 Rocket 2.3 22:01:56 10° N 22:07:12 50° ENE 22:07:12 50° ENE
SL-4 R/B 2.3 22:03:04 10° NNW 22:07:54 71° NE 22:07:59 71° ENE
Meteor 2-10 4.3 22:06:40 10° N 22:12:23 81° W 22:15:54 25° S
Cosmos 2219 3.1 22:11:22 10° NNW 22:17:00 84° WSW 22:18:27 52° S
Gbstr 26 Del rocket 3.5 22:14:32 10° SW 22:20:16 71° NW 22:21:03 59° N
Meteor 2-8 Rocket 4.3 22:17:41 10° N 22:23:47 88° E 22:25:22 53° S
H-2A R/B 4.4 22:31:19 12° NNE 22:31:19 12° NNE 22:31:38 10° NNE
CSL-04 Rocket 4.2 22:28:56 49° NNE 22:28:56 49° NNE 22:33:02 10° N
ATLAS 5 CENTAUR R/B 2.3 22:29:11 10° W 22:30:49 36° WNW 22:30:49 36° WNW
CZ-2C R/B 3.0 22:32:06 10° N 22:37:11 58° W 22:42:19 10° SSW
Centaur D AC-29 2.9 22:35:38 10° WNW 22:38:43 27° NNW 22:38:46 27° NNW
YAOGAN 1 4.2 22:43:15 32° WNW 22:43:15 32° WNW 22:45:56 10° NNW
Lacrosse 4 Rocket 3.6 22:41:07 10° WNW 22:43:41 22° WSW 22:43:41 22° WSW
CZ-4 R/B 4.1 22:58:32 18° W 22:58:32 18° W 23:00:35 10° WNW
Cosmos 2297 Rocket 3.7 23:02:57 10° NW 23:07:24 32° W 23:07:24 32° W
USA 234 4.5 23:13:49 33° NNW 23:13:49 33° NNW 23:17:10 10° NNW
